McCook, NE

12:37 AM CST on January 21, 2017 (GMT -0600)
McCook

Weather History for KMCK - May, 2013

Change the Weather History Date:

Wednesday, May 22, 2013

  Actual Average Record
Temperature  
Mean Temperature 61 °F 61 °F  
Max Temperature 75 °F 75 °F 97 °F (1964)
Min Temperature 46 °F 48 °F 30 °F (1931)
Degree Days  
Heating Degree Days 6    
Growing Degree Days 10 (Base 50)    
Moisture  
Dew Point 44 °F    
Average Humidity 66    
Maximum Humidity 89    
Minimum Humidity 34    
Precipitation  
Precipitation 0.00 in 0.10 in 1.60 in (1977)
Month to date precipitation 0.41 2.12  
Year to date precipitation 3.98 6.92  
Sea Level Pressure  
Sea Level Pressure 29.92 in    
Wind  
Wind Speed 10 mph (NNW)    
Max Wind Speed 17 mph    
Max Gust Speed 22 mph    
Visibility 10 miles    
Events      
T = Trace of Precipitation, MM = Missing Value Source: NWS Daily Summary

Daily Weather History Graph

Daily Weather History Graph

Search for Another Location

Airport or City:

Trip Planner

Search our weather history database for the weather conditions in past years. The results will help you decide how hot, cold, wet, or windy it might be!

Date:

Astronomy

May. 22, 2013 Rise Set
Actual Time 6:20 AM CDT 8:58 PM CDT
Civil Twilight 5:49 AM CDT 9:29 PM CDT
Nautical Twilight 5:09 AM CDT 10:09 PM CDT
Astronomical Twilight 4:25 AM CDT 10:53 PM CDT
Moon 6:22 PM CDT (5/22) 4:25 AM CDT (5/22)
Length of Visible Light 15h 40m
Length of Day
14h 37m
Waxing Gibbous, 91% of the Moon is Illuminated
May 22
Waxing Gibbous
May 24
Full
May 31
Last Quarter
Jun 8
New
Jun 16
First Quarter

Hourly Weather History & Observations

Time (CDT) Temp. Windchill Dew Point Humidity Pressure Visibility Wind Dir Wind Speed Gust Speed Precip Events Conditions
12:53 AM 46.9 °F - 43.0 °F 86% 29.88 in 10.0 mi WNW 8.1 mph - N/A   Clear
1:53 AM 46.0 °F 41.9 °F 43.0 °F 89% 29.87 in 10.0 mi WNW 8.1 mph - N/A   Clear
2:53 AM 46.9 °F - 42.1 °F 83% 29.89 in 10.0 mi West 8.1 mph - N/A   Partly Cloudy
3:07 AM 48.2 °F - 42.8 °F 82% 29.91 in 10.0 mi West 9.2 mph - N/A   Mostly Cloudy
3:21 AM 48.2 °F - 42.8 °F 82% 29.91 in 10.0 mi West 11.5 mph - N/A   Scattered Clouds
3:28 AM 48.2 °F - 42.8 °F 82% 29.92 in 10.0 mi WNW 12.7 mph - N/A   Mostly Cloudy
3:53 AM 48.0 °F - 43.0 °F 83% 29.90 in 10.0 mi WNW 10.4 mph - N/A   Mostly Cloudy
4:10 AM 48.2 °F - 42.8 °F 82% 29.92 in 10.0 mi WNW 11.5 mph - N/A   Partly Cloudy
4:24 AM 48.2 °F - 42.8 °F 82% 29.92 in 10.0 mi NW 12.7 mph - N/A   Mostly Cloudy
4:53 AM 48.9 °F - 43.0 °F 80% 29.91 in 10.0 mi NW 11.5 mph - N/A   Overcast
5:53 AM 48.0 °F - 44.1 °F 86% 29.92 in 10.0 mi NW 10.4 mph - N/A   Overcast
6:53 AM 50.0 °F - 44.1 °F 80% 29.92 in 10.0 mi NW 11.5 mph - N/A   Overcast
7:53 AM 51.1 °F - 44.1 °F 77% 29.94 in 10.0 mi NNW 15.0 mph 21.9 mph N/A   Overcast
8:50 AM 53.6 °F - 44.6 °F 72% 29.94 in 10.0 mi North 13.8 mph 21.9 mph N/A   Scattered Clouds
8:53 AM 54.0 °F - 44.1 °F 69% 29.93 in 10.0 mi North 17.3 mph 21.9 mph N/A   Partly Cloudy
9:53 AM 57.9 °F - 45.0 °F 62% 29.94 in 10.0 mi NW 12.7 mph - N/A   Clear
10:53 AM 62.1 °F - 45.0 °F 53% 29.92 in 10.0 mi NNW 12.7 mph - N/A   Clear
11:53 AM 64.0 °F - 45.0 °F 50% 29.93 in 10.0 mi NW 8.1 mph - N/A   Partly Cloudy
12:53 PM 68.0 °F - 46.0 °F 45% 29.91 in 10.0 mi NW 9.2 mph - N/A   Partly Cloudy
1:53 PM 69.1 °F - 46.0 °F 44% 29.89 in 10.0 mi NNW 6.9 mph - N/A   Clear
2:53 PM 72.0 °F - 46.0 °F 40% 29.88 in 10.0 mi NW 11.5 mph 17.3 mph N/A   Clear
3:53 PM 73.0 °F - 45.0 °F 37% 29.87 in 10.0 mi WNW 10.4 mph - N/A   Clear
4:53 PM 73.0 °F - 44.1 °F 35% 29.87 in 10.0 mi NW 10.4 mph 16.1 mph N/A   Partly Cloudy
5:53 PM 73.9 °F - 44.1 °F 34% 29.88 in 10.0 mi North 12.7 mph 17.3 mph N/A   Scattered Clouds
6:53 PM 73.0 °F - 44.1 °F 35% 29.88 in 10.0 mi North 6.9 mph - N/A   Scattered Clouds
7:53 PM 69.1 °F - 46.0 °F 44% 29.90 in 10.0 mi NNE 15.0 mph - N/A   Clear
8:53 PM 63.0 °F - 46.0 °F 54% 29.94 in 10.0 mi NNE 13.8 mph - N/A   Clear
9:53 PM 57.9 °F - 46.0 °F 65% 29.99 in 10.0 mi NE 12.7 mph - N/A   Clear
10:53 PM 54.0 °F - 46.0 °F 75% 30.03 in 10.0 mi NNE 10.4 mph - N/A   Clear
11:53 PM 51.1 °F - 45.0 °F 80% 30.06 in 10.0 mi NE 9.2 mph - N/A   Clear